Washington, PA

9:17 AM EST on December 08, 2019 (GMT -0500)
Washington County

Weather History for KAFJ - October, 2019

Change the Weather History Date:

Wednesday, October 30, 2019

  Actual Average Record
Temperature  
Mean Temperature 53 °F -  
Max Temperature 62 °F 55 °F 75 °F (1999)
Min Temperature 44 °F 35 °F 24 °F (2000)
Degree Days  
Heating Degree Days 12    
Growing Degree Days 3 (Base 50)    
Moisture  
Dew Point 52 °F    
Average Humidity 95    
Maximum Humidity 100    
Minimum Humidity 78    
Precipitation  
Precipitation 0.41 in - - ()
Sea Level Pressure  
Sea Level Pressure 30.12 in    
Wind  
Wind Speed 2 mph ()    
Max Wind Speed 7 mph    
Max Gust Speed -    
Visibility 6.0 miles    
Events Rain    
Averages and records for this station are not official NWS values.
T = Trace of Precipitation, MM = Missing Value Source: Averaged Metar Reports

Daily Weather History Graph

Daily Weather History Graph

Search for Another Location

Airport or City:

Astronomy

Oct. 30, 2019 Rise Set
Actual Time 7:47 AM EDT 6:21 PM EDT
Civil Twilight 7:19 AM EDT 6:49 PM EDT
Nautical Twilight 6:47 AM EDT 7:21 PM EDT
Astronomical Twilight 6:16 AM EDT 7:52 PM EDT
Moon 10:29 AM EDT (10/30) 8:27 PM EDT (10/30)
Length of Visible Light 11h 29m
Length of Day
10h 33m
Waxing Crescent, 8% of the Moon is Illuminated
Oct 30
Waxing Crescent
Nov 4
First Quarter
Nov 12
Full
Nov 19
Last Quarter
Nov 26
New

Hourly Weather History & Observations

Time (EDT) Temp. Windchill Dew Point Humidity Pressure Visibility Wind Dir Wind Speed Gust Speed Precip Events Conditions
12:56 AM 48.9 °F - 48.0 °F 97% 30.26 in 10.0 mi Calm Calm - N/A   Clear
1:56 AM 46.9 °F - 46.9 °F 100% 30.25 in 9.0 mi Calm Calm - N/A   Clear
2:56 AM 46.9 °F - 46.9 °F 100% 30.23 in 6.0 mi SW 3.5 mph - N/A   Clear
3:56 AM 46.9 °F - 46.9 °F 100% 30.22 in 5.0 mi Calm Calm - N/A   Clear
4:56 AM 46.0 °F - 46.0 °F 100% 30.22 in 8.0 mi Calm Calm - N/A   Clear
5:12 AM 46.4 °F - 44.6 °F 93% 30.22 in 2.0 mi Calm Calm - N/A   Clear
5:22 AM 44.6 °F - 44.6 °F 100% 30.22 in 6.0 mi Calm Calm - N/A   Clear
5:40 AM 46.4 °F 45.2 °F 46.4 °F 100% 30.22 in 2.0 mi East 3.5 mph - N/A   Clear
5:43 AM 46.4 °F 45.2 °F 46.4 °F 100% 30.22 in 1.8 mi East 3.5 mph - N/A   Partly Cloudy
5:50 AM 44.6 °F 43.1 °F 44.6 °F 100% 30.22 in 3.0 mi NE 3.5 mph - N/A   Partly Cloudy
5:51 AM 45.0 °F - 45.0 °F 100% 30.22 in 3.0 mi Calm Calm - N/A   Partly Cloudy
6:56 AM 46.0 °F - 46.0 °F 100% 30.22 in 7.0 mi Calm Calm - N/A   Clear
7:56 AM 46.0 °F - 46.0 °F 100% 30.22 in 4.0 mi Calm Calm - N/A   Clear
8:56 AM 48.9 °F - 48.0 °F 97% 30.23 in 6.0 mi Calm Calm - N/A   Clear
9:56 AM 52.0 °F - 50.0 °F 93% 30.23 in 8.0 mi NNE 4.6 mph - N/A   Clear
10:56 AM 55.0 °F - 51.1 °F 86% 30.20 in 10.0 mi NNE 6.9 mph - N/A   Clear
11:56 AM 60.1 °F - 54.0 °F 80% 30.19 in 10.0 mi ESE 5.8 mph - N/A   Clear
12:56 PM 60.1 °F - 54.0 °F 80% 30.17 in 10.0 mi SE 4.6 mph - N/A   Clear
1:56 PM 62.1 °F - 55.0 °F 78% 30.12 in 10.0 mi ESE 4.6 mph - N/A   Clear
2:56 PM 61.0 °F - 54.0 °F 78% 30.09 in 10.0 mi ESE 5.8 mph - N/A   Clear
3:56 PM 61.0 °F - 55.0 °F 81% 30.08 in 10.0 mi SSE 3.5 mph - 0.00 in Rain Light Rain
4:56 PM 59.0 °F - 57.0 °F 93% 30.06 in 10.0 mi Calm Calm - 0.00 in Rain Light Rain
5:56 PM 57.9 °F - 57.0 °F 97% 30.04 in 5.0 mi Calm Calm - 0.03 in Rain Light Rain
6:56 PM 57.9 °F - 57.0 °F 97% 30.03 in 10.0 mi SE 4.6 mph - 0.01 in Rain Light Rain
7:56 PM 57.9 °F - 57.0 °F 97% 30.00 in 7.0 mi East 3.5 mph - 0.02 in Rain Light Rain
8:56 PM 57.9 °F - 57.9 °F 100% 29.97 in 2.0 mi NE 4.6 mph - 0.20 in Rain Heavy Rain
9:02 PM 57.2 °F - 57.2 °F 100% 29.97 in 2.0 mi East 4.6 mph - 0.03 in Rain Heavy Rain
9:13 PM 57.2 °F - 57.2 °F 100% 29.97 in 2.5 mi NNE 4.6 mph - 0.06 in Rain Light Rain
9:19 PM 57.2 °F - 57.2 °F 100% 29.96 in 4.0 mi NNE 4.6 mph - 0.06 in Rain Light Rain
9:56 PM 59.0 °F - 59.0 °F 100% 29.96 in 4.0 mi Calm Calm - 0.10 in Rain Light Rain
10:51 PM 59.0 °F - 59.0 °F 100% 29.94 in 1.5 mi SE 3.5 mph - 0.03 in Rain Light Rain
10:56 PM 59.0 °F - 59.0 °F 100% 29.94 in 1.2 mi ESE 3.5 mph - 0.03 in Rain Light Rain
11:06 PM 59.0 °F - 59.0 °F 100% 29.94 in 3.0 mi SE 3.5 mph - 0.01 in Rain Light Rain
11:56 PM 60.1 °F - 60.1 °F 100% 29.91 in 10.0 mi South 4.6 mph - 0.02 in Rain Light Rain